Helicity
107 116 132 118 118 114 131 134 137 100 73 76 86 75 86 98 91 102 88 66 58 87 122 135 153 121 116 119 132 130 102 113 160 137 107 110 112 118
115 113 113 110 102 98 110 118 136 138 100 66 86 108 112 120 103 88 75 73 120 148 147 135 97 114 124 116 101 113 110 128 123 92 83 109 119 139
123 121 102 114 102 104 116 126 143 181 133 98 105 118 122 99 99 114 133 146 189 213 185 132 108 136 118 111 128 133 148 154 112 106 145 155 177 192
132 130 102 113 98 112 128 126 151 187 196 117 113 121 122 135 142 145 216 257 252 249 183 162 183 169 146 159 181 218 181 127 131 146 188 192 182 190
111 98 107 121 102 130 132 133 151 193 210 197 121 121 138 186 212 256 278 255 207 132 172 202 206 181 187 219 209 232 163 158 164 157 160 156 163 144
147 96 112 128 115 151 154 145 187 195 196 193 188 166 234 298 342 303 311 266 165 139 151 163 159 134 171 251 213 168 108 129 142 152 149 137 154 127
147 147 163 186 132 143 179 153 168 181 192 209 235 335 394 333 380 316 313 246 199 219 200 89 130 154 173 170 121 119 105 149 157 151 125 158 139 116
167 237 285 252 264 270 276 312 291 262 310 383 362 350 402 383 392 280 253 203 201 159 114 135 157 156 151 113 135 129 167 172 169 165 145 144 136 117
166 185 206 217 302 367 396 450 464 430 364 308 322 348 291 324 275 244 246 184 144 164 154 139 185 191 161 148 175 209 218 191 186 161 143 122 125 125
175 207 262 352 380 455 520 486 446 486 446 396 376 341 285 189 179 211 183 112 154 262 215 172 164 148 164 132 147 200 180 165 136 128 103 114 113 122
299 333 489 492 495 467 519 542 420 310 382 341 389 208 304 263 229 166 178 183 203 200 190 167 147 125 102 87 88 135 131 110 113 99 99 98 97 105
445 498 500 557 455 334 317 267 274 227 373 248 176 237 242 253 270 271 233 200 192 194 164 187 159 99 95 77 79 74 70 95 90 82 101 96 92 94
564 613 524 467 411 270 274 361 206 151 188 184 232 297 274 263 255 218 185 172 172 159 139 131 116 122 101 107 79 58 65 88 77 88 81 102 97 108
553 522 384 381 225 351 380 221 193 252 276 295 306 300 275 249 207 183 159 132 90 100 109 110 102 93 76 66 42 65 72 78 68 72 83 87 103 122
335 315 261 492 395 315 240 260 209 240 299 310 266 247 224 187 205 171 162 163 137 136 121 117 97 81 79 82 92 86 47 45 79 113 103 116 125 122
578 437 387 421 331 267 264 280 298 282 255 262 263 247 211 201 210 181 168 151 128 115 98 103 103 101 97 102 102 101 106 84 115 111 117 120 134 134
537 488 412 318 260 278 326 330 308 321 314 247 215 207 206 177 157 113 109 95 83 79 93 95 85 94 81 99 117 119 140 147 139 139 117 113 111 119
392 279 195 198 252 298 325 354 310 243 226 226 226 184 148 122 110 96 79 80 75 56 50 71 98 87 93 102 65 128 145 157 141 127 123 114 105 119
207 199 232 245 266 272 266 232 232 235 210 182 148 118 99 95 96 89 70 50 54 64 89 110 127 123 102 113 95 56 121 125 124 128 113 97 106 122
279 309 280 225 199 213 222 211 190 170 157 130 106 91 92 76 67 59 53 48 62 69 119 150 161 150 144 141 141 98 4 67 90 104 103 93 95 30
229 221 192 187 191 188 183 169 153 135 108 99 88 72 58 51 52 54 66 101 114 106 131 155 163 103 134 150 169 150 133 67 69 89 81 86 88 78
208 208 184 174 173 168 159 134 124 112 84 71 61 55 57 61 67 80 91 100 115 121 137 138 143 165 168 165 168 146 140 133 126 46 40 51 73 83
190 196 193 183 158 143 130 106 87 80 76 66 57 54 66 83 74 74 87 99 112 115 133 127 147 162 161 174 122 144 131 163 129 103 108 65 63 59
Wind_Speed
24 28 31 29 29 28 28 29 28 40 43 38 34 34 36 36 38 39 43 50 53 53 55 55 59 63 64 67 68 72 72 75 76 76 76 76 78 79
26 26 30 33 31 30 28 28 26 28 42 38 35 38 38 40 42 46 50 54 49 50 53 58 59 59 65 68 71 68 69 72 75 75 75 75 75 79
25 26 29 29 33 31 30 27 31 32 35 47 43 43 44 48 47 48 49 47 48 52 56 58 57 59 65 67 67 67 70 74 74 71 72 76 80 83
27 27 28 35 35 31 33 36 34 35 37 42 47 48 47 46 47 48 45 48 49 58 57 56 59 63 65 66 63 69 72 70 70 72 77 81 85 88
25 23 22 22 28 35 38 39 41 41 39 44 52 53 52 49 48 48 46 53 53 61 55 58 62 63 62 59 67 73 70 69 72 76 82 84 86 90
25 24 23 25 29 31 33 38 41 42 42 44 48 51 50 50 51 50 61 60 60 57 55 57 62 62 59 66 67 74 66 67 72 76 81 83 90 91
31 30 33 36 37 34 37 35 37 39 42 46 57 55 53 48 57 56 59 63 55 55 61 62 66 63 62 70 72 70 66 69 75 80 82 89 90 93
31 37 36 32 37 36 33 38 41 43 47 48 53 57 55 52 56 59 60 60 63 53 70 68 58 64 69 73 73 68 66 75 81 84 86 92 92 90
35 32 34 36 38 37 36 38 44 45 48 50 55 52 52 55 53 57 59 59 63 62 66 67 60 67 70 74 66 62 72 80 83 86 89 88 89 88
34 34 36 38 38 36 35 35 38 43 45 40 43 45 48 51 50 53 55 56 54 54 60 66 63 67 70 63 59 64 81 82 83 90 87 84 84 90
40 39 42 42 34 35 33 31 31 36 38 40 37 40 41 50 51 45 53 57 59 58 60 64 67 76 68 64 57 74 82 79 89 85 83 83 89 96
43 42 38 36 33 31 36 37 38 32 33 33 37 39 45 46 47 46 48 55 60 63 62 72 72 76 78 59 69 77 74 84 85 81 82 91 94 89
37 36 34 33 25 29 34 29 33 29 31 33 37 41 42 44 45 46 48 51 59 63 63 65 69 72 71 76 71 72 76 86 82 79 89 93 93 92
32 29 25 25 31 31 31 26 27 28 31 34 37 40 43 43 45 49 50 51 51 55 58 58 66 70 74 78 80 80 84 84 79 81 91 91 90 90
33 34 19 21 26 24 29 28 30 29 30 32 37 37 39 42 48 50 52 53 49 53 57 59 62 67 71 76 84 88 96 86 77 95 93 94 94 90
21 20 21 26 27 27 30 31 30 28 28 32 35 37 41 46 51 51 55 57 57 63 60 61 64 68 75 74 78 86 84 89 95 95 96 93 89 84
21 28 31 29 28 26 26 26 28 30 33 32 36 42 48 48 51 51 56 59 62 65 68 69 67 70 68 73 81 80 88 92 91 96 96 97 90 87
24 27 32 27 26 27 26 29 29 30 33 35 41 42 44 48 54 57 59 62 66 69 72 75 78 81 79 72 65 84 85 92 93 93 93 97 96 90
25 24 26 27 27 26 27 28 31 33 32 36 39 43 47 51 55 59 62 64 69 71 74 77 79 85 95 97 77 74 92 94 95 96 94 92 96 92
23 24 29 28 27 26 27 28 29 30 34 38 42 45 50 53 56 61 65 69 72 72 78 78 78 81 87 91 93 88 80 87 92 97 96 90 85 85
23 23 27 28 28 27 26 26 29 33 36 39 43 46 49 53 59 62 67 69 72 74 80 81 78 77 80 79 87 88 83 78 81 90 92 91 92 88
27 25 26 25 24 24 25 28 31 34 37 40 43 47 51 55 61 64 66 70 73 75 78 79 80 80 79 81 89 89 85 85 86 81 80 79 82 83
23 21 21 21 24 25 27 28 31 34 38 40 45 48 52 58 60 62 65 69 73 77 80 84 81 77 80 82 84 84 87 90 90 92 85 80 77 75
Wind_Direction
268 275 282 287 291 294 300 305 308 310 314 317 320 321 323 325 328 328 328 327 328 329 331 332 332 329 329 331 332 332 332 332 333 332 332 333 333 333
272 273 280 287 290 293 295 298 302 304 309 316 316 320 322 324 326 325 326 327 331 332 330 330 331 332 330 330 331 333 333 334 333 334 334 335 335 335
267 270 276 282 287 288 291 294 296 299 300 310 311 314 315 316 320 323 325 328 329 331 332 329 331 333 332 331 332 333 333 332 334 336 337 336 335 334
258 266 269 281 282 287 289 289 294 296 298 304 311 311 312 316 318 320 320 327 328 327 330 330 331 332 332 332 333 332 332 334 336 336 336 334 333 333
249 229 235 252 275 286 287 290 294 298 299 303 308 312 314 317 323 327 323 325 329 323 325 327 329 332 333 334 330 331 334 335 334 334 334 333 333 332
243 241 243 255 275 281 282 288 294 296 299 300 304 307 310 318 322 318 320 325 324 328 329 330 332 333 333 331 330 331 333 335 335 334 335 334 333 333
258 257 264 268 275 280 284 288 290 291 295 299 306 311 312 314 317 318 320 320 323 328 324 328 329 330 331 329 330 332 334 335 335 334 334 333 333 333
259 270 274 273 280 284 285 291 292 290 291 296 308 307 309 313 317 319 321 321 318 326 321 323 332 329 329 330 331 333 334 334 334 333 332 332 333 334
268 266 271 277 280 284 293 301 306 307 307 304 307 309 311 314 316 319 321 321 320 326 323 322 333 330 330 329 336 339 337 335 334 333 332 333 333 334
266 266 268 273 278 278 284 295 307 311 317 316 321 321 324 319 320 322 324 324 327 332 334 323 332 331 333 335 336 337 336 335 334 332 333 334 334 334
278 280 278 272 281 278 283 297 305 315 328 326 333 325 336 327 325 327 327 326 324 326 337 331 330 329 333 334 336 336 336 336 334 334 334 335 333 332
282 289 290 288 290 287 291 295 299 304 322 321 332 326 332 340 341 339 335 327 325 324 332 330 331 332 327 334 333 334 336 336 334 335 335 334 333 333
276 289 295 302 278 293 293 304 299 320 328 329 324 333 339 339 341 343 341 335 329 327 332 334 330 332 330 328 333 334 336 334 334 333 335 334 333 333
271 283 299 307 305 307 306 319 309 324 326 324 330 333 335 338 341 340 340 340 338 335 337 339 332 333 331 329 330 332 333 334 334 334 334 333 333 333
293 271 293 316 318 322 321 329 322 328 326 329 327 334 338 340 340 340 342 343 345 344 342 341 338 335 333 330 328 330 330 333 335 332 332 333 331 332
300 290 312 320 313 317 323 326 331 336 334 333 335 338 340 340 339 342 339 341 337 336 341 341 339 337 333 332 331 330 332 331 331 332 331 331 332 332
297 302 303 307 308 316 324 329 332 332 332 337 336 335 333 337 339 343 340 338 336 335 335 337 339 338 335 332 331 332 331 331 331 331 331 330 331 331
298 305 301 301 301 308 316 323 328 328 333 337 334 337 338 338 337 339 339 338 336 335 335 335 335 334 335 335 336 332 332 331 332 332 331 329 328 331
297 301 293 298 304 311 321 324 325 330 339 336 339 339 338 338 337 337 337 336 335 336 335 335 335 334 330 329 333 337 332 332 331 331 331 330 329 330
298 292 294 300 307 314 323 327 331 335 335 337 336 337 337 337 336 336 336 335 335 336 335 336 336 335 333 330 329 331 336 333 333 331 332 332 331 331
297 296 295 300 307 316 327 331 334 334 335 336 336 338 338 337 335 336 336 337 336 336 335 336 336 335 333 333 332 332 336 338 338 336 334 333 333 332
292 299 300 305 313 321 328 330 331 334 336 336 337 337 337 337 337 337 338 337 337 337 335 335 336 336 336 334 332 333 334 337 338 340 339 337 335 332
297 301 307 313 317 322 326 330 332 334 335 336 336 338 338 337 339 339 339 338 336 336 336 335 337 338 336 334 333 333 334 335 337 338 339 340 338 336